AirNav   Everest Fuels
 
 864 users online  

PS78 Pittsburgh City Center Heliport
Pittsburgh, Pennsylvania, USA

GOING TO PITTSBURGH?


FAA INFORMATION EFFECTIVE 21 MAY 2020

Location

FAA Identifier: PS78
Lat/Long: 40-26-32.2480N 079-57-36.1870W
40-26.537467N 079-57.603117W
40.4422911,-79.9600519
(estimated)
Elevation: 1124 ft. / 343 m (estimated)
Variation: 09W (2000)
Time zone: UTC -4 (UTC -5 during Standard Time)
Zip code: 15213

Heliport Operations

Heliport use: Private use, MEDICAL USE.
Activation date: 04/1986
Control tower: no
ARTCC: CLEVELAND CENTER
FSS: ALTOONA FLIGHT SERVICE STATION
NOTAMs facility: FDC (NOTAM-D service not available)
Attendance: CONTINUOUS
FOR ATTENDANT CALL 412-692-5000.
Wind indicator: lighted
Segmented circle: no
Lights: FOR PERIMETER LGTS CALL 412-692-5191.
Beacon: white-green-yellow (heliport)
FOR ROTG BCN CALL 412-692-5191.
Landing fee: yes

Heliport Communications

PITTSBURGH APPROACH: 126.725
PITTSBURGH DEPARTURE: 126.725
WX AWOS-A at 42PN (2.2 nm NW): PHONE 412-442-2213
WX ASOS at AGC (5 nm S): 120.55 (412-466-8968)
WX ASOS at PIT (13 nm W): PHONE 412-472-0145
WX AWOS-3 at FWQ (15 nm SE): 118.475 (724-379-5815)
  • APCH/DEP SVC PRVDD BY PITSBURGH INTL ATCT (PIT) 126.725/291.650.

Nearby radio navigation aids

VOR radial/distance  VOR name  Freq  Var
AGCr030/10.5ALLEGHENY VOR/DME110.0009W
EWCr161/25.7ELLWOOD CITY VOR/DME115.8008W
HLGr076/29.9WHEELING VOR/DME112.2007W
IHDr322/39.4INDIAN HEAD VORTAC108.2006W

Heliport Services

Runway Information

Helipad H1

Dimensions: 96 x 48 ft. / 29 x 15 m
Surface: concrete, in fair condition
Runway edge lights: PERI
Latitude: 40-26.537467N
Longitude: 079-57.603117W
Elevation: 1124.0 ft.
Traffic pattern: leftleft
Markings: none, in fair condition

Heliport Ownership and Management from official FAA records

Ownership: Privately-owned
Owner: UPMC PRESBYTERIAN
200 LOTHROP STREET
PITTSBURGH, PA 15213
Phone 412-647-5618
Manager: DON CHARLEY
200 LOTHROP STREET
PITTSBURGH, PA 15213
Phone 412-647-5618
412-692-5000.

Additional Remarks

FOR CD CTC PITTSBURGH APCH AT 412-472-5591
A52-H1 ELEVATOR TOWER & PENTHOUSE - EAST OF LANDING AREA; HOSPITAL TOWER & FLAGPOLE - NORTH OF LANDING AREA.

Instrument Procedures

There are no published instrument procedures at PS78.

Some nearby airports with instrument procedures:

KAGC - Allegheny County Airport (5 nm S)
G05 - Finleyville Airpark (12 nm S)
KPIT - Pittsburgh International Airport (13 nm W)
KFWQ - Rostraver Airport (15 nm SE)
KBTP - Pittsburgh/Butler Regional Airport (20 nm N)
 
Loc | Ops | Rwys | IFR | FBO | Links
Com | Nav | Svcs | Stats | Notes
Area around PS78 (Pittsburgh City Center Heliport)
 
Road maps at: MapQuest Bing Google
 
Aerial photo
No photo
 
Sectional chart

 
Airport distance calculator
Flying to Pittsburgh City Center Heliport? Find the distance to fly.

From to PS78

Sunrise and sunset
Times for 06-Jun-2020
 Local
(UTC-4)
 Zulu
(UTC)
Morning civil twilight05:1809:18
Sunrise05:5109:51
Sunset20:4700:47
Evening civil twilight21:1901:19

Current date and time
Zulu (UTC)  06-Jun-2020 13:17:35
Local (UTC-4)  06-Jun-2020 09:17:35
 
METAR
KAGC 
6nm S 
061253Z 33006G14KT 9SM CLR 23/18 A2995 RMK AO2 SLP139 T02280183
KPIT 
14nm W 
061251Z 32009KT 8SM SCT065 BKN250 23/18 A2995 RMK AO2 SLP143 T02280178
KP53 
15nm SE 
061256Z AUTO 32007KT 07/06 A3009 RMK AO1 SLP190 T00720061
KBTP 
19nm N 
061256Z AUTO VRB03KT 10SM CLR 22/17 A2996 RMK AO2 SLP144 T02220172
TAF
KAGC 
6nm S 
061130Z 0612/0712 26006KT P6SM SCT040 TEMPO 0612/0613 5SM BR FM061400 30006KT P6SM BKN035 FM061600 31008G16KT P6SM SKC FM071100 35005KT P6SM SKC
KPIT 
14nm W 
061130Z 0612/0718 29006KT P6SM SCT040 TEMPO 0612/0613 5SM BR FM061500 32008G16KT P6SM SCT040 FM061800 32009G17KT P6SM SKC FM070100 34006KT P6SM SKC
NOTAMs
Click for the latest NOTAMs
NOTAMs are issued by the DoD/FAA and will open in a separate window not controlled by AirNav.

 

 
 

Would you like to see your business listed on this page?

 If your business provides an interesting product or service to pilots, flight crews, aircraft, or users of the Pittsburgh City Center Heliport, you should consider listing it here.  To start the listing process, click on the button below
 
Add a business
 

Other Pages about Pittsburgh City Center Heliport

Update a link
 
Copyright © AirNav, LLC. All rights reserved. Privacy Policy  Contact